Belize, Belize

5:43 PM CST on June 26, 2017 (GMT -0600)
Philip S W Goldson International

Weather History for MZBZ - June, 2013

Change the Weather History Date:

Sunday, June 30, 2013

  Actual Average Record
Temperature  
Mean Temperature 84 °F -  
Max Temperature 90 °F 88 °F 91 °F (2010)
Min Temperature 77 °F 76 °F 75 °F (2001)
Cooling Degree Days 18    
Growing Degree Days 34 (Base 50)    
Moisture  
Dew Point 76 °F    
Average Humidity 73    
Maximum Humidity 94    
Minimum Humidity 47    
Precipitation  
Precipitation 0.00 in 0.32 in - ()
Sea Level Pressure  
Sea Level Pressure 29.83 in    
Wind  
Wind Speed 3 mph ()    
Max Wind Speed 9 mph    
Max Gust Speed -    
Visibility 8.9 miles    
Events      
Averages and records for this station are not official NWS values.
T = Trace of Precipitation, MM = Missing Value Source: Averaged Metar Reports

Daily Weather History Graph

Daily Weather History Graph

Search for Another Location

Airport or City:

Trip Planner

Search our weather history database for the weather conditions in past years. The results will help you decide how hot, cold, wet, or windy it might be!

Date:

Astronomy

Jun. 30, 2013 Rise Set
Actual Time 5:22 AM CST 6:31 PM CST
Civil Twilight 4:57 AM CST 6:55 PM CST
Nautical Twilight 4:29 AM CST 7:24 PM CST
Astronomical Twilight 4:00 AM CST 7:53 PM CST
Moon No Moon Rise 12:21 PM CST (6/30)
Length of Visible Light 13h 57m
Length of Day
13h 09m
Last Quarter, 45% of the Moon is Illuminated
Jun 30
Last Quarter
Jul 8
New
Jul 15
First Quarter
Jul 22
Full
Jul 29
Last Quarter

Hourly Weather History & Observations

Time (CST) Temp. Heat Index Dew Point Humidity Pressure Visibility Wind Dir Wind Speed Gust Speed Precip Events Conditions
12:00 AM 80 °F - 77 °F 87% 29.88 in 12 mi Calm Calm - -   Scattered Clouds
3:00 AM 79 °F - 77 °F 92% 29.84 in 12 mi Calm Calm - -   Scattered Clouds
5:00 AM 78.8 °F - 77.0 °F 94% 29.83 in 6.2 mi Calm Calm - N/A   Mostly Cloudy
6:00 AM 78 °F - 76 °F 91% 29.86 in 12 mi Calm Calm - -   Scattered Clouds
6:00 AM 78.8 °F - 75.2 °F 89% 29.86 in 6.2 mi Calm Calm - N/A   Mostly Cloudy
7:00 AM 78.8 °F - 77.0 °F 94% 29.86 in 6.2 mi Calm Calm - N/A   Mostly Cloudy
8:00 AM 82.4 °F 90.9 °F 77.0 °F 84% 29.86 in 6.2 mi West 3.5 mph - N/A   Mostly Cloudy
9:00 AM 84 °F - 77 °F 73% 29.86 in 16 mi 2.3 mph - -   Mostly Cloudy
9:00 AM 84.2 °F 94.1 °F 77.0 °F 79% 29.86 in 6.2 mi Variable 2.3 mph - N/A   Mostly Cloudy
10:00 AM 86.0 °F 95.1 °F 75.2 °F 70% 29.86 in 6.2 mi SW 3.5 mph - N/A   Scattered Clouds
11:00 AM 87.8 °F 97.6 °F 75.2 °F 66% 29.85 in 6.2 mi SSW 3.5 mph - N/A   Scattered Clouds
12:00 PM 90 °F - 72 °F 47% 29.84 in 16 mi East 6.9 mph - -   Scattered Clouds
12:00 PM 89.6 °F 96.2 °F 71.6 °F 55% 29.84 in 6.2 mi East 6.9 mph - N/A   Scattered Clouds
1:00 PM 89.6 °F 99.8 °F 75.2 °F 62% 29.82 in 6.2 mi East 6.9 mph - N/A   Scattered Clouds
2:00 PM 89.6 °F 99.8 °F 75.2 °F 62% 29.80 in 6.2 mi East 8.1 mph - N/A   Scattered Clouds
3:00 PM 89 °F - 76 °F 58% 29.79 in 16 mi East 9.2 mph - -   Scattered Clouds
3:00 PM 89.6 °F 102.2 °F 77.0 °F 66% 29.79 in 6.2 mi East 9.2 mph - N/A   Scattered Clouds
4:00 PM 89.6 °F 99.8 °F 75.2 °F 62% 29.77 in 6.2 mi East 8.1 mph - N/A   Partly Cloudy
5:00 PM 86.0 °F 95.1 °F 75.2 °F 70% 29.77 in 6.2 mi East 6.9 mph - N/A   Partly Cloudy
6:00 PM 85 °F - 75 °F 66% 29.81 in 14 mi East 5.8 mph - -   Scattered Clouds
6:00 PM 86.0 °F 95.1 °F 75.2 °F 70% 29.80 in 6.2 mi East 5.8 mph - N/A   Scattered Clouds
9:00 PM 82 °F - 76 °F 78% 29.88 in 12 mi East 4.6 mph - -   Scattered Clouds